| time (UTC) | temp F | wind direction | speed MPH | gust MPH | rain 1hr in | rain 24hr in | rain mn in | humidity % | barometer mb |
| 20260505003516 | 51 | 311 | 2.0 | 8.0 | 0.00 | 0.02 | 0.00 | 86 | 1013.8 |
| 20260505003012 | 51 | 54 | 0.0 | 5.0 | 0.00 | 0.02 | 0.00 | 86 | 1013.8 |
| 20260505002515 | 51 | 339 | 0.0 | 8.0 | 0.00 | 0.02 | 0.00 | 86 | 1013.9 |
| 20260505002012 | 51 | 56 | 2.0 | 8.0 | 0.00 | 0.02 | 0.00 | 86 | 1013.9 |
| 20260505001511 | 51 | 289 | 2.0 | 11.0 | 0.00 | 0.02 | 0.00 | 89 | 1013.9 |
| 20260505001010 | 51 | 39 | 2.0 | 11.0 | 0.00 | 0.02 | 0.00 | 86 | 1013.9 |
| 20260505000509 | 51 | 308 | 1.0 | 10.0 | 0.00 | 0.02 | 0.00 | 86 | 1013.9 |
| 20260505000019 | 51 | 34 | 3.0 | 10.0 | 0.00 | 0.02 | 0.00 | 86 | 1014.0 |
| 20260504235508 | 51 | 337 | 3.0 | 9.0 | 0.00 | 0.02 | 0.00 | 86 | 1014.1 |
| 20260504235008 | 51 | 36 | 1.0 | 7.0 | 0.00 | 0.02 | 0.00 | 86 | 1014.1 |
| 20260504234607 | 51 | 65 | 3.0 | 8.0 | 0.00 | 0.02 | 0.00 | 86 | 1014.1 |
| 20260504234006 | 51 | 26 | 3.0 | 8.0 | 0.00 | 0.02 | 0.00 | 86 | 1014.2 |
| 20260504233506 | 51 | 106 | 3.0 | 8.0 | 0.00 | 0.02 | 0.00 | 86 | 1014.1 |
| 20260504233006 | 51 | 288 | 1.0 | 5.0 | 0.00 | 0.02 | 0.00 | 85 | 1014.2 |
| 20260504232505 | 52 | 61 | 1.0 | 9.0 | 0.00 | 0.02 | 0.00 | 86 | 1014.2 |
| 20260504232004 | 52 | 341 | 3.0 | 9.0 | 0.00 | 0.02 | 0.00 | 86 | 1014.3 |
| 20260504231503 | 52 | 315 | 2.0 | 6.0 | 0.00 | 0.02 | 0.00 | 86 | 1014.3 |
| 20260504231002 | 52 | 329 | 2.0 | 6.0 | 0.00 | 0.02 | 0.00 | 86 | 1014.3 |
| 20260504230502 | 52 | 43 | 2.0 | 8.0 | 0.00 | 0.02 | 0.00 | 86 | 1014.4 |
| 20260504230002 | 52 | 56 | 1.0 | 5.0 | 0.00 | 0.02 | 0.00 | 86 | 1014.4 |
| 20260504225502 | 52 | 70 | 1.0 | 9.0 | 0.00 | 0.02 | 0.00 | 86 | 1014.3 |
| 20260504225100 | 52 | 340 | 3.0 | 10.0 | 0.00 | 0.02 | 0.00 | 86 | 1014.3 |
| 20260504224559 | 52 | 47 | 2.0 | 10.0 | 0.00 | 0.02 | 0.00 | 86 | 1014.3 |
| 20260504224059 | 53 | 321 | 2.0 | 5.0 | 0.00 | 0.02 | 0.00 | 86 | 1014.4 |
| 20260504223558 | 53 | 59 | 1.0 | 9.0 | 0.00 | 0.02 | 0.00 | 86 | 1014.4 |
| 20260504223103 | 53 | 279 | 2.0 | 10.0 | 0.00 | 0.02 | 0.00 | 86 | 1014.4 |
| 20260504222559 | 53 | 44 | 3.0 | 7.0 | 0.00 | 0.02 | 0.00 | 87 | 1014.3 |
| 20260504222055 | 53 | 19 | 1.0 | 5.0 | 0.00 | 0.02 | 0.00 | 87 | 1014.3 |
| 20260504221555 | 53 | 303 | 1.0 | 8.0 | 0.00 | 0.02 | 0.00 | 87 | 1014.4 |
| 20260504221054 | 53 | 351 | 2.0 | 8.0 | 0.00 | 0.02 | 0.00 | 87 | 1014.5 |
| 20260504220553 | 53 | 312 | 2.0 | 4.0 | 0.00 | 0.02 | 0.00 | 87 | 1014.5 |
| 20260504220052 | 53 | 319 | 1.0 | 5.0 | 0.00 | 0.02 | 0.00 | 87 | 1014.6 |
| 20260504215551 | 53 | 305 | 2.0 | 5.0 | 0.00 | 0.02 | 0.02 | 86 | 1014.5 |
| 20260504215051 | 53 | 47 | 1.0 | 4.0 | 0.00 | 0.02 | 0.02 | 86 | 1014.6 |
| 20260504214607 | 53 | 331 | 0.0 | 4.0 | 0.00 | 0.02 | 0.02 | 86 | 1014.6 |
| 20260504214052 | 53 | 306 | 1.0 | 5.0 | 0.00 | 0.02 | 0.02 | 86 | 1014.6 |
| 20260504213552 | 53 | 336 | 1.0 | 5.0 | 0.00 | 0.02 | 0.02 | 86 | 1014.6 |
| 20260504213058 | 53 | 28 | 1.0 | 6.0 | 0.00 | 0.02 | 0.02 | 86 | 1014.6 |
| 20260504212553 | 53 | 322 | 2.0 | 9.0 | 0.01 | 0.02 | 0.02 | 87 | 1014.6 |
| 20260504212051 | 53 | 69 | 3.0 | 9.0 | 0.01 | 0.02 | 0.02 | 87 | 1014.7 |
| 20260504211553 | 54 | 292 | 2.0 | 5.0 | 0.01 | 0.02 | 0.02 | 87 | 1014.7 |
| 20260504211050 | 54 | 311 | 1.0 | 5.0 | 0.01 | 0.02 | 0.02 | 87 | 1014.7 |
| 20260504210552 | 54 | 317 | 1.0 | 5.0 | 0.01 | 0.02 | 0.02 | 87 | 1014.7 |
| 20260504210049 | 54 | 292 | 1.0 | 5.0 | 0.01 | 0.02 | 0.02 | 87 | 1014.7 |
| 20260504205548 | 54 | 13 | 1.0 | 5.0 | 0.01 | 0.02 | 0.02 | 87 | 1014.7 |
| 20260504205049 | 54 | 280 | 1.0 | 6.0 | 0.01 | 0.02 | 0.02 | 87 | 1014.7 |
| 20260504204551 | 54 | 267 | 2.0 | 9.0 | 0.01 | 0.02 | 0.02 | 87 | 1014.7 |
| 20260504204047 | 54 | 333 | 2.0 | 9.0 | 0.01 | 0.02 | 0.02 | 87 | 1014.7 |
| 20260504203547 | 54 | 67 | 2.0 | 9.0 | 0.01 | 0.02 | 0.02 | 87 | 1014.7 |
| 20260504203048 | 54 | 292 | 1.0 | 6.0 | 0.01 | 0.02 | 0.02 | 87 | 1014.6 |
| 20260504202547 | 54 | 327 | 1.0 | 6.0 | 0.00 | 0.02 | 0.02 | 86 | 1014.6 |
| 20260504202046 | 55 | 290 | 1.0 | 5.0 | 0.00 | 0.02 | 0.02 | 87 | 1014.5 |
| 20260504201559 | 55 | 295 | 1.0 | 6.0 | 0.00 | 0.02 | 0.02 | 86 | 1014.5 |
| 20260504201047 | 55 | 355 | 1.0 | 6.0 | 0.00 | 0.02 | 0.02 | 86 | 1014.4 |
| 20260504200543 | 55 | 34 | 2.0 | 6.0 | 0.00 | 0.02 | 0.02 | 86 | 1014.4 |
| 20260504200045 | 55 | 303 | 2.0 | 7.0 | 0.00 | 0.02 | 0.02 | 85 | 1014.4 |
| 20260504195542 | 55 | 360 | 1.0 | 5.0 | 0.00 | 0.02 | 0.02 | 85 | 1014.3 |
| 20260504195042 | 55 | 66 | 2.0 | 5.0 | 0.00 | 0.02 | 0.02 | 85 | 1014.3 |
| 20260504194548 | 55 | 343 | 1.0 | 5.0 | 0.00 | 0.02 | 0.02 | 84 | 1014.2 |
| 20260504194042 | 55 | 360 | 1.0 | 6.0 | 0.00 | 0.02 | 0.02 | 84 | 1014.1 |
| 20260504193542 | 55 | 319 | 2.0 | 6.0 | 0.00 | 0.02 | 0.02 | 84 | 1014.1 |
| 20260504193041 | 55 | 57 | 2.0 | 8.0 | 0.00 | 0.02 | 0.02 | 84 | 1014.0 |
| 20260504192542 | 56 | 328 | 2.0 | 7.0 | 0.00 | 0.02 | 0.02 | 84 | 1014.1 |
| 20260504192040 | 56 | 40 | 1.0 | 7.0 | 0.00 | 0.02 | 0.02 | 84 | 1014.1 |
| 20260504191548 | 56 | 10 | 2.0 | 5.0 | 0.00 | 0.02 | 0.02 | 84 | 1014.0 |
| 20260504191040 | 56 | 285 | 2.0 | 6.0 | 0.00 | 0.02 | 0.02 | 84 | 1014.0 |
| 20260504190540 | 56 | 330 | 0.0 | 4.0 | 0.00 | 0.02 | 0.02 | 84 | 1014.0 |
| 20260504190040 | 56 | 326 | 1.0 | 5.0 | 0.00 | 0.02 | 0.02 | 83 | 1014.0 |
| 20260504185543 | 57 | 297 | 2.0 | 5.0 | 0.00 | 0.02 | 0.02 | 83 | 1013.9 |
| 20260504185040 | 57 | 319 | 2.0 | 5.0 | 0.00 | 0.02 | 0.02 | 83 | 1014.0 |
| 20260504184552 | 57 | 323 | 2.0 | 8.0 | 0.00 | 0.02 | 0.02 | 84 | 1013.9 |
| 20260504184039 | 57 | 50 | 1.0 | 8.0 | 0.00 | 0.02 | 0.02 | 83 | 1013.9 |
| 20260504183541 | 57 | 292 | 1.0 | 9.0 | 0.00 | 0.02 | 0.02 | 83 | 1013.9 |
| 20260504183041 | 58 | 64 | 2.0 | 8.0 | 0.00 | 0.02 | 0.02 | 83 | 1013.9 |
| 20260504182538 | 58 | 342 | 1.0 | 10.0 | 0.00 | 0.02 | 0.02 | 83 | 1013.9 |
| 20260504182038 | 58 | 286 | 1.0 | 10.0 | 0.00 | 0.02 | 0.02 | 83 | 1013.8 |
| 20260504181539 | 58 | 305 | 2.0 | 8.0 | 0.00 | 0.02 | 0.02 | 82 | 1013.8 |
| 20260504181040 | 58 | 76 | 2.0 | 8.0 | 0.00 | 0.02 | 0.02 | 82 | 1013.8 |
| 20260504180538 | 58 | 310 | 2.0 | 8.0 | 0.00 | 0.02 | 0.02 | 82 | 1013.8 |
| 20260504180041 | 59 | 313 | 2.0 | 5.0 | 0.00 | 0.02 | 0.02 | 82 | 1013.7 |
| 20260504175537 | 58 | 5 | 1.0 | 6.0 | 0.00 | 0.02 | 0.02 | 82 | 1013.8 |
| 20260504175037 | 58 | 296 | 2.0 | 9.0 | 0.00 | 0.02 | 0.02 | 81 | 1013.7 |
| 20260504174539 | 59 | 360 | 2.0 | 6.0 | 0.00 | 0.02 | 0.02 | 82 | 1013.8 |
| 20260504174037 | 59 | 323 | 1.0 | 5.0 | 0.00 | 0.02 | 0.02 | 82 | 1013.9 |
| 20260504173541 | 59 | 284 | 1.0 | 7.0 | 0.00 | 0.02 | 0.02 | 81 | 1013.8 |
| 20260504173037 | 59 | 315 | 1.0 | 7.0 | 0.00 | 0.02 | 0.02 | 81 | 1013.7 |
| 20260504172536 | 59 | 10 | 1.0 | 10.0 | 0.00 | 0.02 | 0.02 | 81 | 1013.7 |
| 20260504172036 | 59 | 322 | 4.0 | 10.0 | 0.00 | 0.02 | 0.02 | 81 | 1013.8 |
| 20260504171536 | 59 | 61 | 1.0 | 10.0 | 0.00 | 0.02 | 0.02 | 81 | 1013.7 |
| 20260504171037 | 60 | 291 | 3.0 | 10.0 | 0.00 | 0.02 | 0.02 | 81 | 1013.7 |
| 20260504170537 | 60 | 300 | 2.0 | 8.0 | 0.00 | 0.02 | 0.02 | 81 | 1013.7 |
| 20260504151031 | 63 | 41 | 2.0 | 8.0 | 0.00 | 0.02 | 0.02 | 80 | 1013.3 |
| 20260504150531 | 64 | 63 | 1.0 | 8.0 | 0.00 | 0.02 | 0.02 | 79 | 1013.2 |
| 20260504141028 | 64 | 321 | 1.0 | 5.0 | 0.00 | 0.03 | 0.02 | 78 | 1013.4 |
| 20260504140528 | 64 | 309 | 0.0 | 10.0 | 0.00 | 0.03 | 0.02 | 78 | 1013.4 |
| 20260504130528 | 65 | 257 | 0.0 | 3.0 | 0.00 | 0.03 | 0.02 | 75 | 1013.6 |
| 20260504110512 | 61 | 342 | 2.0 | 8.0 | 0.00 | 0.04 | 0.02 | 86 | 1014.1 |
| 20260504100507 | 62 | 215 | 0.0 | 3.0 | 0.01 | 0.04 | 0.02 | 82 | 1014.2 |
| 20260504081539 | 59 | 129 | 0.0 | 3.0 | 0.00 | 0.04 | 0.01 | 92 | 1013.7 |
| 20260504081038 | 59 | 232 | 0.0 | 3.0 | 0.00 | 0.04 | 0.01 | 92 | 1013.6 |
| 20260504080538 | 59 | 123 | 0.0 | 2.0 | 0.00 | 0.04 | 0.01 | 92 | 1013.6 |
| 20260504050510 | 54 | 119 | 0.0 | 3.0 | 0.00 | 0.05 | 0.01 | 96 | 1012.3 |
| 20260504050008 | 54 | 127 | 0.0 | 2.0 | 0.00 | 0.05 | 0.01 | 96 | 1012.2 |
| 20260504045507 | 54 | 127 | 0.0 | 3.0 | 0.00 | 0.06 | 0.01 | 96 | 1012.3 |
| 20260504045006 | 54 | 123 | 1.0 | 3.0 | 0.00 | 0.06 | 0.01 | 96 | 1012.3 |
| 20260504044506 | 55 | 124 | 1.0 | 3.0 | 0.00 | 0.06 | 0.01 | 96 | 1012.2 |
| 20260504044005 | 55 | 126 | 1.0 | 3.0 | 0.00 | 0.06 | 0.01 | 96 | 1012.2 |
| 20260504043505 | 55 | 134 | 1.0 | 4.0 | 0.00 | 0.06 | 0.01 | 96 | 1012.2 |
| 20260504043007 | 55 | 120 | 0.0 | 4.0 | 0.00 | 0.06 | 0.01 | 96 | 1012.2 |
| 20260504042507 | 55 | 126 | 1.0 | 4.0 | 0.00 | 0.06 | 0.01 | 96 | 1012.2 |
| 20260504042004 | 55 | 121 | 0.0 | 3.0 | 0.00 | 0.06 | 0.01 | 96 | 1012.2 |
| 20260504041503 | 55 | 134 | 0.0 | 3.0 | 0.00 | 0.06 | 0.01 | 96 | 1012.2 |
| 20260504041003 | 55 | 125 | 1.0 | 3.0 | 0.00 | 0.06 | 0.01 | 96 | 1012.2 |
| 20260504040504 | 55 | 211 | 0.0 | 2.0 | 0.00 | 0.06 | 0.01 | 96 | 1012.2 |
| 20260504040003 | 55 | 248 | 0.0 | 0.0 | 0.00 | 0.06 | 0.01 | 96 | 1012.1 |
| 20260504035503 | 55 | 248 | 0.0 | 0.0 | 0.00 | 0.06 | 0.01 | 96 | 1012.2 |
| 20260504035005 | 55 | 248 | 0.0 | 0.0 | 0.00 | 0.06 | 0.01 | 96 | 1012.1 |
| 20260504034501 | 55 | 248 | 0.0 | 0.0 | 0.00 | 0.06 | 0.01 | 96 | 1012.1 |
| 20260504034002 | 55 | 248 | 0.0 | 0.0 | 0.00 | 0.06 | 0.01 | 96 | 1012.1 |
| 20260504033501 | 55 | 248 | 0.0 | 0.0 | 0.00 | 0.06 | 0.01 | 96 | 1012.1 |
| 20260504033003 | 55 | 248 | 0.0 | 0.0 | 0.00 | 0.06 | 0.01 | 95 | 1012.1 |
| 20260504032601 | 55 | 248 | 0.0 | 0.0 | 0.00 | 0.06 | 0.01 | 95 | 1012.1 |
| 20260504032058 | 55 | 248 | 0.0 | 0.0 | 0.00 | 0.06 | 0.01 | 96 | 1012.2 |
| 20260504031604 | 55 | 248 | 0.0 | 0.0 | 0.00 | 0.06 | 0.01 | 96 | 1012.1 |
| 20260504031100 | 55 | 248 | 0.0 | 0.0 | 0.00 | 0.06 | 0.01 | 96 | 1012.1 |
| 20260504030558 | 55 | 248 | 0.0 | 0.0 | 0.00 | 0.06 | 0.01 | 96 | 1012.1 |
| 20260504030059 | 55 | 248 | 0.0 | 0.0 | 0.00 | 0.06 | 0.01 | 96 | 1012.3 |
| 20260504025559 | 55 | 248 | 0.0 | 0.0 | 0.00 | 0.07 | 0.01 | 96 | 1012.2 |
| 20260504025058 | 55 | 248 | 0.0 | 0.0 | 0.00 | 0.07 | 0.01 | 96 | 1012.3 |
| 20260504024601 | 55 | 248 | 0.0 | 0.0 | 0.00 | 0.07 | 0.01 | 96 | 1012.2 |
| 20260504024056 | 55 | 248 | 0.0 | 0.0 | 0.00 | 0.07 | 0.01 | 96 | 1012.2 |
| 20260504023556 | 55 | 248 | 0.0 | 0.0 | 0.00 | 0.07 | 0.01 | 95 | 1012.1 |
| 20260504023058 | 55 | 248 | 0.0 | 0.0 | 0.00 | 0.07 | 0.01 | 95 | 1012.1 |
| 20260504022555 | 55 | 248 | 0.0 | 0.0 | 0.00 | 0.07 | 0.01 | 95 | 1012.1 |
| 20260504022054 | 56 | 248 | 0.0 | 0.0 | 0.00 | 0.07 | 0.01 | 95 | 1012.0 |
| 20260504021556 | 56 | 248 | 0.0 | 0.0 | 0.00 | 0.07 | 0.01 | 95 | 1012.0 |
| 20260504021054 | 56 | 248 | 0.0 | 0.0 | 0.00 | 0.07 | 0.01 | 95 | 1012.1 |
| 20260504020554 | 56 | 248 | 0.0 | 0.0 | 0.00 | 0.07 | 0.01 | 95 | 1012.0 |
| 20260504020054 | 56 | 248 | 0.0 | 0.0 | 0.00 | 0.07 | 0.01 | 95 | 1012.1 |
| 20260504015553 | 56 | 248 | 0.0 | 0.0 | 0.00 | 0.09 | 0.01 | 95 | 1012.0 |
| 20260504015054 | 56 | 248 | 0.0 | 0.0 | 0.00 | 0.09 | 0.01 | 95 | 1012.0 |
| 20260504014552 | 56 | 248 | 0.0 | 0.0 | 0.00 | 0.09 | 0.01 | 95 | 1012.1 |
| 20260504014055 | 56 | 248 | 0.0 | 0.0 | 0.00 | 0.09 | 0.01 | 95 | 1012.0 |
| 20260504013553 | 56 | 248 | 0.0 | 0.0 | 0.00 | 0.09 | 0.01 | 95 | 1012.1 |
| 20260504013105 | 56 | 248 | 0.0 | 2.0 | 0.00 | 0.09 | 0.01 | 95 | 1012.1 |
| 20260504012556 | 56 | 290 | 0.0 | 2.0 | 0.00 | 0.09 | 0.01 | 95 | 1012.2 |
| 20260504012055 | 56 | 209 | 0.0 | 2.0 | 0.00 | 0.09 | 0.01 | 95 | 1012.1 |
| 20260504011552 | 56 | 209 | 0.0 | 2.0 | 0.00 | 0.09 | 0.01 | 95 | 1012.2 |
| 20260504011052 | 56 | 244 | 0.0 | 2.0 | 0.00 | 0.09 | 0.01 | 95 | 1012.2 |
| 20260504010551 | 56 | 271 | 0.0 | 1.0 | 0.00 | 0.09 | 0.01 | 95 | 1012.1 |
| 20260504010055 | 56 | 285 | 0.0 | 2.0 | 0.00 | 0.09 | 0.01 | 95 | 1012.1 |
| 20260504005551 | 56 | 285 | 0.0 | 2.0 | 0.00 | 0.12 | 0.01 | 95 | 1012.1 |
| 20260504005051 | 56 | 244 | 0.0 | 3.0 | 0.01 | 0.12 | 0.01 | 95 | 1012.0 |
| 20260504004602 | 56 | 244 | 0.0 | 3.0 | 0.01 | 0.12 | 0.01 | 95 | 1012.1 |
| 20260504004150 | 56 | 294 | 0.0 | 4.0 | 0.01 | 0.12 | 0.01 | 95 | 1012.0 |